Location: Newark
(48.1500°N, 13.1167°E)
Time: 12:57:49
(UTC+00:00)

XW-2D - Visible Passes

Search period start: 06 December 2021 00:00
Search period end: 16 December 2021 00:00
Orbit: 504 x 521 km, 97.5° (Epoch: 06 December)

Date Brightness Start Highest point End Pass type
(mag) Time Alt. Az. Time Alt. Az. Time Alt. Az.
06 Dec ? 05:18:43 10° NNE 05:22:33 88° WNW 05:26:21 10° SSW visible
06 Dec ? 16:01:40 10° SSE 16:05:24 71° ENE 16:09:11 10° N visible
06 Dec ? 17:39:09 10° W 17:39:52 10° W 17:40:36 10° WNW visible
07 Dec ? 05:03:03 10° NNE 05:06:51 60° ESE 05:10:36 10° S visible
07 Dec ? 15:46:08 10° SE 15:49:44 46° ENE 15:53:23 10° N visible
07 Dec ? 17:21:42 10° SW 17:23:59 16° W 17:26:20 10° NW visible
08 Dec ? 04:47:29 10° NNE 04:51:06 39° E 04:54:41 10° SSE visible
08 Dec ? 17:05:09 10° SSW 17:08:10 22° W 17:11:11 10° NW visible
09 Dec ? 04:32:02 10° NE 04:35:18 27° E 04:38:34 10° SSE visible
09 Dec ? 06:06:01 10° N 06:09:16 27° WNW 06:12:30 10° SW visible
09 Dec ? 16:48:56 10° SSW 16:52:21 33° W 16:55:48 10° NNW visible
10 Dec ? 04:16:45 10° NE 04:19:29 19° E 04:22:12 10° SE visible
10 Dec ? 05:50:04 10° N 05:53:38 39° WNW 05:57:11 10° SW visible
10 Dec ? 16:32:55 10° S 16:36:34 50° W 16:40:16 10° NNW visible
11 Dec ? 04:01:52 10° ENE 04:03:37 13° E 04:05:21 10° ESE visible
11 Dec ? 05:34:14 10° N 05:37:59 59° WNW 05:41:43 10° SSW visible
11 Dec ? 16:17:05 10° S 16:20:50 77° WSW 16:24:38 10° NNW visible
12 Dec ? 05:18:28 10° NNE 05:22:18 89° W 05:26:05 10° SSW visible
12 Dec ? 16:01:22 10° SSE 16:05:07 70° ENE 16:08:54 10° N visible
12 Dec ? 17:38:42 10° W 17:39:35 11° W 17:40:28 10° WNW visible
13 Dec ? 05:02:46 10° NNE 05:06:34 60° E 05:10:18 10° S visible
13 Dec ? 15:45:49 10° SE 15:49:25 46° ENE 15:53:05 10° N visible
13 Dec ? 17:21:20 10° SW 17:23:41 16° W 17:26:03 10° NW visible
14 Dec ? 04:47:11 10° NNE 04:50:47 39° E 04:54:21 10° SSE visible
14 Dec ? 17:04:47 10° SSW 17:07:49 23° W 17:10:53 10° NW visible
15 Dec ? 04:31:43 10° NE 04:34:58 26° E 04:38:12 10° SSE visible
15 Dec ? 06:05:40 10° N 06:08:56 27° WNW 06:12:09 10° SW visible
15 Dec ? 16:48:33 10° SSW 16:51:59 33° W 16:55:28 10° NNW visible
